sat.trackr.live / text

‹ back to catalog

STARLINK-33580

NORAD 63711 · 2025-087Q

PAYLOAD ACTIVE UNKNOWN

§ Identity

Operator
Country
US
Launch date
2025-04-28
Launch site
AFWTR
Launch vehicle
Mass (kg)
RCS (m²)

Purposes: comms

External: N2YO · Heavens-Above · Gunter

§ Orbital elements

Epoch: 2026-09-20T15:16:19.295616Z

Period
94.01 min
Inclination
53.1618°
Eccentricity
0.0000952
Mean motion
15.31718034 rev/d
Perigee alt
470.0 km
Apogee alt
471.3 km
Semi-major
6,848.8 km
B*
8.1227e-4
RAAN
32.8579°
Arg perigee
83.1951°
Mean anomaly
276.9159°
Rev number
7,906

§ Raw data

STARLINK-335801 63711U 25087Q   26263.63633444  .00024939  00000+0  81227-3 0  99912 63711  53.1618  32.8579 0000952  83.1951 276.9159 15.31718034 79065

JSON: /api/v1/satellites/63711 · /tle

For live sub-satellite position, see the globe view (requires WebGL).

§ Visibility from observer

Set your observer location to see the next 7 days of passes ≥ 10°. The values pass through the URL so the page stays shareable.

No JS? Fill the form by hand. The geolocation button needs JavaScript.